La Veta Pass, CO

6:51 PM MDT on May 26, 2017 (GMT -0600)
La Veta Pass

Weather History for KVTP - September, 2013

Change the Weather History Date:

Sunday, September 1, 2013

  Actual Average (KTAD) Record (KTAD)
Temperature  
Mean Temperature 57 °F -  
Max Temperature 66 °F 84 °F 98 °F (1954)
Min Temperature 48 °F 53 °F 46 °F (1972)
Degree Days  
Heating Degree Days 8    
Growing Degree Days 7 (Base 50)    
Moisture  
Dew Point 46 °F    
Average Humidity 71    
Maximum Humidity 100    
Minimum Humidity 49    
Precipitation  
Precipitation 0.00 in - - ()
Sea Level Pressure  
Sea Level Pressure 30.54 in    
Wind  
Wind Speed 8 mph (East)    
Max Wind Speed 18 mph    
Max Gust Speed 26 mph    
Visibility 9 miles    
Events Fog , Rain , Thunderstorm    
Averages and records for this station are not official NWS values.
T = Trace of Precipitation, MM = Missing Value Source: NWS Daily Summary

Daily Weather History Graph

Daily Weather History Graph

Search for Another Location

Airport or City:

Trip Planner

Search our weather history database for the weather conditions in past years. The results will help you decide how hot, cold, wet, or windy it might be!

Date:

Astronomy

Sep. 01, 2013 Rise Set
Actual Time 6:31 AM MDT 7:29 PM MDT
Civil Twilight 6:04 AM MDT 7:55 PM MDT
Nautical Twilight 5:32 AM MDT 8:27 PM MDT
Astronomical Twilight 4:59 AM MDT 9:00 PM MDT
Moon 2:58 AM MDT (9/1) 5:05 PM MDT (9/1)
Length of Visible Light 13h 51m
Length of Day
12h 57m
Waning Crescent, 13% of the Moon is Illuminated
Sep 1
Waning Crescent
Sep 5
New
Sep 12
First Quarter
Sep 19
Full
Sep 26
Last Quarter

Hourly Weather History & Observations

Time (MDT) Temp. Dew Point Humidity Pressure Visibility Wind Dir Wind Speed Gust Speed Precip Events Conditions
12:15 AM 53.6 °F 44.6 °F 72% 30.52 in 10.0 mi East 6.9 mph - N/A   Overcast
12:35 AM 53.6 °F 44.6 °F 72% 30.52 in 10.0 mi ENE 9.2 mph - N/A   Overcast
12:53 AM 53.6 °F 44.6 °F 72% 30.52 in 10.0 mi East 8.1 mph - N/A   Overcast
1:15 AM 53.6 °F 44.6 °F 72% 30.53 in 10.0 mi East 9.2 mph - N/A   Mostly Cloudy
1:34 AM 53.6 °F 44.6 °F 72% 30.54 in 10.0 mi East 6.9 mph - N/A   Mostly Cloudy
1:55 AM 53.6 °F 44.6 °F 72% 30.54 in 10.0 mi East 6.9 mph - N/A   Mostly Cloudy
2:14 AM 53.6 °F 44.6 °F 72% 30.53 in 10.0 mi East 6.9 mph - N/A   Overcast
2:35 AM 53.6 °F 44.6 °F 72% 30.52 in 10.0 mi East 4.6 mph - N/A   Overcast
2:54 AM 53.6 °F 44.6 °F 72% 30.52 in 10.0 mi Calm Calm - N/A   Scattered Clouds
3:15 AM 51.8 °F 44.6 °F 76% 30.52 in 10.0 mi Calm Calm - N/A   Clear
3:34 AM 53.6 °F 44.6 °F 72% 30.52 in 10.0 mi Calm Calm - N/A   Clear
3:55 AM 51.8 °F 42.8 °F 71% 30.51 in 10.0 mi SSW 3.5 mph - N/A   Clear
4:15 AM 51.8 °F 42.8 °F 71% 30.50 in 10.0 mi Calm Calm - N/A   Clear
4:35 AM 51.8 °F 42.8 °F 71% 30.50 in 10.0 mi Calm Calm - N/A   Clear
4:54 AM 53.6 °F 42.8 °F 67% 30.50 in 10.0 mi ENE 3.5 mph - N/A   Clear
5:13 AM 53.6 °F 42.8 °F 67% 30.50 in 10.0 mi ENE 4.6 mph - N/A   Clear
5:34 AM 53.6 °F 42.8 °F 67% 30.51 in 10.0 mi East 5.8 mph - N/A   Clear
5:53 AM 53.6 °F 42.8 °F 67% 30.52 in 10.0 mi East 5.8 mph - N/A   Scattered Clouds
6:13 AM 53.6 °F 42.8 °F 67% 30.52 in 10.0 mi ENE 8.1 mph - N/A   Scattered Clouds
6:33 AM 53.6 °F 42.8 °F 67% 30.52 in 10.0 mi ENE 9.2 mph - N/A   Scattered Clouds
6:55 AM 53.6 °F 42.8 °F 67% 30.53 in 10.0 mi East 9.2 mph - N/A   Clear
7:15 AM 53.6 °F 42.8 °F 67% 30.54 in 10.0 mi ENE 9.2 mph - N/A   Clear
7:35 AM 53.6 °F 42.8 °F 67% 30.54 in 10.0 mi East 8.1 mph - N/A   Clear
7:55 AM 53.6 °F 42.8 °F 67% 30.55 in 10.0 mi East 6.9 mph - N/A   Clear
8:15 AM 55.4 °F 42.8 °F 63% 30.55 in 10.0 mi East 8.1 mph - N/A   Clear
8:33 AM 60.8 °F 42.8 °F 52% 30.56 in 10.0 mi East 11.5 mph - N/A   Clear
8:55 AM 62.6 °F 44.6 °F 52% 30.56 in 10.0 mi ENE 8.1 mph - N/A   Clear
9:14 AM 62.6 °F 44.6 °F 52% 30.56 in 10.0 mi East 9.2 mph - N/A   Clear
9:34 AM 62.6 °F 44.6 °F 52% 30.56 in 10.0 mi East 13.8 mph 20.7 mph N/A   Clear
9:55 AM 64.4 °F 44.6 °F 49% 30.57 in 10.0 mi East 8.1 mph 19.6 mph N/A   Clear
10:15 AM 64.4 °F 46.4 °F 52% 30.57 in 10.0 mi ENE 11.5 mph 18.4 mph N/A   Clear
10:34 AM 64.4 °F 46.4 °F 52% 30.57 in 10.0 mi ENE 12.7 mph 17.3 mph N/A   Clear
10:54 AM 62.6 °F 46.4 °F 55% 30.56 in 10.0 mi ENE 15.0 mph 21.9 mph N/A   Clear
11:14 AM 64.4 °F 48.2 °F 56% 30.57 in 10.0 mi ENE 15.0 mph 20.7 mph N/A   Scattered Clouds
11:34 AM 64.4 °F 48.2 °F 56% 30.57 in 10.0 mi ENE 11.5 mph 19.6 mph N/A   Clear
11:53 AM 64.4 °F 48.2 °F 56% 30.56 in 10.0 mi ENE 11.5 mph 19.6 mph N/A   Scattered Clouds
12:14 PM 62.6 °F 48.2 °F 59% 30.56 in 10.0 mi ENE 16.1 mph 21.9 mph N/A   Scattered Clouds
12:35 PM 66.2 °F 46.4 °F 49% 30.56 in 10.0 mi East 15.0 mph 21.9 mph N/A   Scattered Clouds
12:55 PM 64.4 °F 48.2 °F 56% 30.56 in 10.0 mi ENE 11.5 mph 23.0 mph N/A   Scattered Clouds
1:15 PM 60.8 °F 46.4 °F 59% 30.56 in 10.0 mi ENE 11.5 mph 20.7 mph N/A   Scattered Clouds
1:35 PM 59.0 °F 50.0 °F 72% 30.56 in 10.0 mi ENE 13.8 mph - N/A   Mostly Cloudy
1:54 PM 60.8 °F 48.2 °F 63% 30.56 in 10.0 mi East 11.5 mph 17.3 mph N/A   Overcast
2:15 PM 59.0 °F 50.0 °F 72% 30.56 in 10.0 mi East 9.2 mph 18.4 mph N/A   Light Drizzle
2:34 PM 59.0 °F 51.8 °F 77% 30.54 in 10.0 mi ENE 12.7 mph 20.7 mph N/A Rain , Thunderstorm Light Thunderstorms and Rain
2:55 PM 64.4 °F 50.0 °F 59% 30.53 in 10.0 mi East 11.5 mph 18.4 mph N/A   Mostly Cloudy
3:14 PM 64.4 °F 50.0 °F 59% 30.52 in 10.0 mi East 17.3 mph 24.2 mph N/A Thunderstorm Scattered Clouds
3:33 PM 64.4 °F 48.2 °F 56% 30.52 in 10.0 mi ENE 10.4 mph 23.0 mph N/A   Mostly Cloudy
3:54 PM 64.4 °F 46.4 °F 52% 30.52 in 10.0 mi ENE 15.0 mph 25.3 mph N/A   Mostly Cloudy
4:15 PM 62.6 °F 46.4 °F 55% 30.51 in 10.0 mi East 17.3 mph 23.0 mph N/A Thunderstorm Thunderstorm
4:34 PM 62.6 °F 46.4 °F 55% 30.51 in 10.0 mi ENE 18.4 mph 26.5 mph N/A Thunderstorm Thunderstorm
4:54 PM 60.8 °F 46.4 °F 59% 30.51 in 10.0 mi ENE 16.1 mph 26.5 mph N/A Thunderstorm Thunderstorm
5:15 PM 59.0 °F 50.0 °F 72% 30.51 in 10.0 mi ENE 18.4 mph 26.5 mph N/A Thunderstorm Thunderstorm
5:34 PM 57.2 °F 50.0 °F 77% 30.52 in 10.0 mi ENE 15.0 mph 25.3 mph N/A Thunderstorm Thunderstorm
5:54 PM - - N/A% 30.53 in - ENE 11.5 mph - N/A Thunderstorm Thunderstorm
6:15 PM 53.6 °F 50.0 °F 88% 30.53 in - ENE 11.5 mph - N/A Thunderstorm Thunderstorm
6:34 PM 48.2 °F 46.4 °F 93% 30.54 in 0.8 mi ESE 8.1 mph - N/A Rain , Thunderstorm Light Thunderstorms and Rain
6:54 PM 51.8 °F 50.0 °F 94% 30.54 in 0.8 mi ENE 8.1 mph - N/A Rain , Thunderstorm Light Thunderstorms and Rain
7:14 PM 51.8 °F 51.8 °F 100% 30.54 in 0.2 mi ENE 12.7 mph 19.6 mph N/A Fog , Thunderstorm Unknown
7:35 PM 51.8 °F 50.0 °F 94% 30.54 in 0.2 mi ENE 10.4 mph - N/A Thunderstorm Drizzle
7:54 PM 50.0 °F 46.4 °F 87% 30.55 in 0.5 mi East 13.8 mph 18.4 mph N/A   Drizzle
8:15 PM 48.2 °F 46.4 °F 93% 30.56 in 0.2 mi ENE 13.8 mph - N/A   Drizzle
8:35 PM 48.2 °F 46.4 °F 93% 30.56 in 0.2 mi ENE 10.4 mph - N/A Thunderstorm Unknown
8:53 PM 48.2 °F 46.4 °F 93% 30.56 in 5.0 mi East 12.7 mph - N/A Rain Light Rain
9:14 PM 48.2 °F 46.4 °F 93% 30.57 in 10.0 mi East 11.5 mph - N/A   Light Drizzle
9:35 PM 50.0 °F 46.4 °F 87% 30.58 in 10.0 mi SE 5.8 mph - N/A Rain Rain
9:54 PM 50.0 °F 46.4 °F 87% 30.58 in 7.0 mi South 8.1 mph - N/A Rain Light Rain
10:13 PM 50.0 °F 46.4 °F 87% 30.59 in 10.0 mi SSW 11.5 mph - N/A   Drizzle
10:34 PM 48.2 °F 46.4 °F 93% 30.59 in 10.0 mi SW 10.4 mph - N/A Thunderstorm Drizzle
10:54 PM 48.2 °F 46.4 °F 93% 30.60 in 5.0 mi Calm Calm - N/A Rain Rain
11:15 PM 48.2 °F 46.4 °F 93% 30.60 in 4.0 mi SW 8.1 mph - N/A Rain Rain
11:35 PM 48.2 °F 46.4 °F 93% 30.60 in 3.0 mi SW 6.9 mph - N/A Rain Rain
11:55 PM 48.2 °F 46.4 °F 93% 30.59 in 4.0 mi SW 5.8 mph - N/A Rain Rain